Flag Weather past 2 weeks in Ashkelon, Israel

Now
63 °F

Passing clouds.


Feels Like: 63 °F
Forecast: 61 / 64 °F
Wind: 18 mph from West

Location: Ben Gurion International Airport

Current Time: Nov 26, 2014 at 6:32:32 PM

Latest Report: Nov 26, 2014 at 6:20 PM


Visibility: N/A

Pressure: 29.95 "Hg

Humidity: 64%

Dew point: 50 °F

Location of AshkelonLocation

Historic Weather in Ashkelon — Graph

°F

Ashkelon temperature yesterday

Maximum temperature yesterday: 66 °F (at 11:20 AM)
Minimum temperature yesterday: 52 °F (at 3:20 AM)
Average temperature yesterday: 58 °F

Past Weeks' High & Low Weather Summary

 TemperatureHumidityPressure
High81 °F (Nov 14, 11:50 AM)94% (Nov 16, 5:50 AM)30.18 "Hg (Nov 16, 5:50 AM)
Low52 °F (Nov 25, 3:20 AM)30% (Nov 19, 3:20 PM)29.86 "Hg (Nov 14, 1:20 PM)
Average65 °F72%29.97 "Hg
* Reported Nov 11 5:20 PM — Nov 26 5:20 PM, Ashkelon, Weather by CustomWeather, © 2014

Note: Actual official high and low records may vary slightly from our data, if they occured in-between our weather recording intervals... More about our weather records

Advertising

Ashkelon weather history for previous 24 hours

 ConditionsComfort  
Time TempWeatherWind HumidityBarometerVisibility
5:20 PM
Nov 26
63 °FPartly cloudy.15 mph68%29.95 "HgN/A
4:50 PM61 °FPassing clouds.14 mph72%29.92 "HgN/A
4:20 PM57 °FScattered clouds.12 mph82%29.92 "HgN/A
3:50 PM61 °FBroken clouds.8 mph72%29.92 "HgN/A
3:20 PM59 °FBroken clouds.8 mph82%29.92 "HgN/A
2:50 PM59 °FRain. Broken clouds.12 mph77%29.92 "HgN/A
2:20 PM61 °FLight rain. Broken clouds.16 mph83%29.92 "HgN/A
1:50 PM59 °FBroken clouds.7 mph88%29.92 "HgN/A
1:20 PM57 °FHeavy rain. Broken clouds.14 mph94%29.92 "HgN/A
12:50 PM57 °FBroken clouds.6 mph94%29.92 "HgN/A
12:20 PM57 °FBroken clouds.14 mph94%29.92 "HgN/A
11:50 AM55 °FSleet. Partly sunny.17 mph88%29.92 "HgN/A
11:20 AM57 °FRain. Broken clouds.14 mph88%29.92 "HgN/A
10:50 AM55 °FPartly sunny.13 mph94%29.92 "HgN/A
10:20 AM55 °FHeavy rain. Broken clouds.17 mph88%29.92 "Hg5 mi
9:50 AM55 °FLight rain. Broken clouds.12 mph94%29.95 "Hg6 mi
9:35 AM55 °FSleet. Broken clouds.7 mph94%29.92 "Hg6 mi
9:20 AM55 °FRain. Broken clouds.13 mph94%29.92 "Hg3 mi
8:50 AM55 °FBroken clouds.13 mph88%29.92 "Hg5 mi
8:20 AM54 °FStrong thunderstorms. Overcast.17 mph94%29.92 "Hg1 mi
7:50 AM55 °FHeavy rain. Partly sunny.15 mph94%29.92 "Hg4 mi
7:20 AM55 °FLight rain. Partly sunny.13 mph94%29.89 "Hg4 mi
6:50 AM55 °FLight rain. Partly sunny.15 mph94%29.89 "Hg6 mi
6:20 AM55 °FRain showers. Partly sunny.15 mph94%29.89 "Hg2 mi
5:20 AM55 °FRain. Passing clouds.7 mph94%29.89 "HgN/A
4:50 AM55 °FLight rain. Passing clouds.13 mph94%29.89 "HgN/A
4:20 AM55 °FLight rain. Passing clouds.12 mph94%29.89 "HgN/A
3:50 AM57 °FLight rain. Passing clouds.12 mph94%29.89 "HgN/A
3:20 AM57 °FRain. Passing clouds.14 mph94%29.89 "HgN/A
2:50 AM57 °FRain. Passing clouds.3 mph94%29.89 "Hg6 mi
2:20 AM57 °FLight rain. Passing clouds.12 mph94%29.89 "HgN/A
1:50 AM57 °FLight rain. Passing clouds.9 mph94%29.89 "HgN/A
1:20 AM57 °FLight rain. Passing clouds.8 mph94%29.89 "HgN/A
12:50 AM57 °FRain. Passing clouds.10 mph94%29.92 "Hg5 mi
12:20 AM57 °FLight rain. Passing clouds.12 mph94%29.89 "HgN/A
11:50 PM
Nov 25
57 °FRain. Passing clouds.12 mph94%29.89 "Hg6 mi
11:20 PM57 °FHeavy rain. Passing clouds.10 mph94%29.92 "Hg4 mi
10:50 PM57 °FLight rain. Passing clouds.12 mph94%29.89 "Hg6 mi
10:20 PM57 °FRain. Passing clouds.8 mph94%29.92 "Hg6 mi
9:50 PM57 °FThunderstorms. Passing clouds.10 mph94%29.92 "Hg6 mi
9:20 PM57 °FStrong thunderstorms. Passing clouds.14 mph88%29.92 "Hg4 mi
8:50 PM59 °FPartly cloudy.13 mph88%29.89 "Hg6 mi
8:20 PM59 °FRain. Partly cloudy.12 mph88%29.92 "Hg4 mi
7:50 PM59 °FLight rain. Passing clouds.8 mph88%29.92 "HgN/A
7:20 PM59 °FHeavy rain. Partly cloudy.8 mph88%29.92 "Hg4 mi
6:50 PM59 °FLight rain. Passing clouds.7 mph88%29.92 "HgN/A
6:20 PM59 °FRain. Partly cloudy.6 mph88%29.92 "HgN/A
Weather by CustomWeather, © 2014

See weather overviewHow to use our weather pages